EDW135F HEGN-LSZH

Flight info

Callsign EDW135F
Flight time N/A
Altitude 34000
Route HGD V608 NABED T55 GINDI W8 ALPID/N0464F350 DCT GESON/N0466F340 Q777 RASDA DCT METRU/N0457F360 DCT TIGRA DCT AIOSA DCT ROTAR DCT MOBDO DCT SOTOV/N0469F300 P66 KPT L856 NEGRA
Aircraft A320/M-SDE2E3FGHIJ1RWXY/LB1

Departure

Time 2026-04-28 14:41
Airport Hurghada International Airport (HEGN)

Arrival

Time N/A
Airport Zürich Airport (LSZH)
Time Latitude Longitude Altitude Speed Heading
2026-04-28 14:14 27.17710 33.80673 52 ft 0 kts 75°
2026-04-28 14:31 27.17709 33.80672 52 ft 2 kts 75°
2026-04-28 14:32 27.17703 33.80644 41 ft 4 kts 78°
2026-04-28 14:32 27.17698 33.80614 51 ft 4 kts 84°
2026-04-28 14:32 27.17697 33.80584 53 ft 4 kts 101°
2026-04-28 14:32 27.17707 33.80561 50 ft 2 kts 151°
2026-04-28 14:33 27.17709 33.80560 50 ft 0 kts 154°
2026-04-28 14:34 27.17702 33.80564 54 ft 5 kts 154°
2026-04-28 14:35 27.17589 33.80601 52 ft 17 kts 165°
2026-04-28 14:35 27.17486 33.80566 56 ft 17 kts 249°
2026-04-28 14:35 27.17462 33.80479 56 ft 2 kts 255°
2026-04-28 14:35 27.17457 33.80459 53 ft 4 kts 255°
2026-04-28 14:36 27.17445 33.80409 52 ft 9 kts 255°
2026-04-28 14:36 27.17429 33.80336 48 ft 9 kts 255°
2026-04-28 14:36 27.17414 33.80274 51 ft 7 kts 253°
2026-04-28 14:36 27.17399 33.80215 50 ft 10 kts 255°
2026-04-28 14:37 27.17377 33.80127 55 ft 14 kts 254°
2026-04-28 14:37 27.17345 33.79992 57 ft 21 kts 255°
2026-04-28 14:37 27.17304 33.79820 69 ft 23 kts 254°
2026-04-28 14:37 27.17267 33.79664 91 ft 19 kts 254°
2026-04-28 14:38 27.17230 33.79528 101 ft 18 kts 235°
2026-04-28 14:38 27.17098 33.79531 105 ft 23 kts 166°
2026-04-28 14:38 27.16928 33.79580 107 ft 28 kts 165°
2026-04-28 14:38 27.16754 33.79631 106 ft 24 kts 166°
2026-04-28 14:39 27.16605 33.79675 107 ft 20 kts 165°
2026-04-28 14:39 27.16474 33.79714 109 ft 20 kts 165°
2026-04-28 14:39 27.16300 33.79766 114 ft 28 kts 165°
2026-04-28 14:39 27.16114 33.79821 114 ft 27 kts 165°
2026-04-28 14:40 27.15972 33.79855 115 ft 16 kts 186°
2026-04-28 14:40 27.15943 33.79837 119 ft 13 kts 230°
2026-04-28 14:40 27.15913 33.79699 120 ft 11 kts 289°
2026-04-28 14:40 27.15983 33.79663 117 ft 15 kts 345°
2026-04-28 14:41 27.16285 33.79574 113 ft 79 kts 345°
2026-04-28 14:41 27.16720 33.79444 113 ft 116 kts 345°
2026-04-28 14:41 27.17666 33.79158 100 ft 163 kts 343°
2026-04-28 14:41 27.18760 33.78808 640 ft 161 kts 349°
2026-04-28 14:42 27.19853 33.78524 1279 ft 161 kts 348°
2026-04-28 14:42 27.20992 33.78241 1622 ft 177 kts 348°
2026-04-28 14:42 27.22276 33.77921 1803 ft 202 kts 348°
2026-04-28 14:42 27.23724 33.77555 2079 ft 225 kts 346°
2026-04-28 14:43 27.25319 33.77142 2544 ft 241 kts 345°
2026-04-28 14:43 27.26985 33.76701 3232 ft 248 kts 344°
2026-04-28 14:43 27.28675 33.76251 4028 ft 252 kts 344°
2026-04-28 14:43 27.30386 33.75757 4815 ft 255 kts 336°
2026-04-28 14:44 27.31861 33.74683 5542 ft 256 kts 312°
2026-04-28 14:44 27.32761 33.72956 6261 ft 261 kts 287°
2026-04-28 14:44 27.32874 33.70902 6911 ft 271 kts 261°
2026-04-28 14:44 27.32322 33.68854 7596 ft 277 kts 254°
2026-04-28 14:45 27.31704 33.66788 7910 ft 279 kts 253°
2026-04-28 14:45 27.31085 33.64721 7985 ft 279 kts 254°
2026-04-28 14:45 27.30469 33.62646 7989 ft 278 kts 254°
2026-04-28 14:45 27.29862 33.60596 7994 ft 277 kts 255°
2026-04-28 14:46 27.29254 33.58545 7994 ft 275 kts 255°
2026-04-28 14:46 27.28648 33.56510 7992 ft 274 kts 254°
2026-04-28 14:46 27.28040 33.54462 7996 ft 277 kts 255°
2026-04-28 14:46 27.27435 33.52414 7997 ft 277 kts 253°
2026-04-28 14:47 27.26828 33.50353 8001 ft 277 kts 254°
2026-04-28 14:47 27.26221 33.48301 8000 ft 277 kts 254°
2026-04-28 14:47 27.25610 33.46231 8442 ft 280 kts 255°
2026-04-28 14:47 27.24997 33.44148 9194 ft 283 kts 255°
2026-04-28 14:48 27.24376 33.42036 9898 ft 287 kts 254°
2026-04-28 14:48 27.23733 33.39853 10217 ft 305 kts 254°
2026-04-28 14:48 27.23040 33.37506 10352 ft 328 kts 253°
2026-04-28 14:48 27.22342 33.35023 10467 ft 348 kts 258°
2026-04-28 14:49 27.21954 33.32276 10608 ft 365 kts 268°
2026-04-28 14:49 27.22039 33.29416 11095 ft 369 kts 276°
2026-04-28 14:49 27.22284 33.26537 11665 ft 373 kts 276°
2026-04-28 14:49 27.22526 33.23624 12276 ft 375 kts 276°
2026-04-28 14:50 27.22766 33.20693 12818 ft 379 kts 276°
2026-04-28 14:50 27.23006 33.17729 13404 ft 381 kts 275°
2026-04-28 14:50 27.23245 33.14754 13965 ft 384 kts 275°
2026-04-28 14:50 27.23489 33.11762 14495 ft 386 kts 275°
2026-04-28 14:51 27.23736 33.08749 15013 ft 388 kts 275°
2026-04-28 14:51 27.23984 33.05722 15549 ft 390 kts 275°
2026-04-28 14:51 27.24231 33.02681 16117 ft 391 kts 275°
2026-04-28 14:51 27.24477 32.99630 16667 ft 393 kts 275°
2026-04-28 14:52 27.24722 32.96563 17201 ft 395 kts 275°
2026-04-28 14:52 27.24965 32.93486 17716 ft 396 kts 275°
2026-04-28 14:52 27.25211 32.90396 18233 ft 398 kts 275°
2026-04-28 14:52 27.25460 32.87297 18661 ft 399 kts 275°
2026-04-28 14:53 27.25711 32.84183 19059 ft 401 kts 275°
2026-04-28 14:53 27.25962 32.81051 19470 ft 403 kts 275°
2026-04-28 14:53 27.26210 32.77905 19869 ft 405 kts 275°
2026-04-28 14:53 27.26458 32.74748 20256 ft 407 kts 275°
2026-04-28 14:54 27.26708 32.71574 20632 ft 408 kts 275°
2026-04-28 14:54 27.26958 32.68389 20999 ft 410 kts 275°
2026-04-28 14:54 27.27208 32.65188 21343 ft 412 kts 275°
2026-04-28 14:54 27.27457 32.61972 21702 ft 414 kts 275°
2026-04-28 14:55 27.27707 32.58751 22082 ft 414 kts 275°
2026-04-28 14:55 27.27958 32.55519 22425 ft 416 kts 275°
2026-04-28 14:55 27.28210 32.52275 22759 ft 417 kts 275°
2026-04-28 14:55 27.28463 32.49020 23092 ft 418 kts 275°
2026-04-28 14:56 27.28717 32.45758 23399 ft 420 kts 275°
2026-04-28 14:56 27.28970 32.42477 23662 ft 422 kts 275°
2026-04-28 14:56 27.29223 32.39184 23926 ft 423 kts 275°
2026-04-28 14:56 27.29475 32.35882 24186 ft 424 kts 275°
2026-04-28 14:57 27.29775 32.32577 24433 ft 425 kts 280°
2026-04-28 14:57 27.30199 32.30432 24595 ft 425 kts 286°
2026-04-28 14:57 27.31726 32.26338 24919 ft 427 kts 299°
2026-04-28 14:57 27.33404 32.23574 25137 ft 429 kts 306°
2026-04-28 14:58 27.35209 32.20951 25362 ft 430 kts 306°
2026-04-28 14:58 27.37065 32.18250 25586 ft 431 kts 306°
2026-04-28 14:58 27.38899 32.15572 25803 ft 432 kts 306°
2026-04-28 14:58 27.40733 32.12891 26006 ft 433 kts 306°
2026-04-28 14:59 27.42571 32.10204 26196 ft 434 kts 306°
2026-04-28 14:59 27.44417 32.07508 26398 ft 434 kts 306°
2026-04-28 14:59 27.46231 32.04859 26731 ft 431 kts 306°
2026-04-28 14:59 27.48079 32.02154 27072 ft 429 kts 306°
2026-04-28 15:00 27.49868 31.99532 27363 ft 427 kts 306°
2026-04-28 15:00 27.51675 31.96882 27651 ft 426 kts 306°
2026-04-28 15:00 27.53479 31.94238 27949 ft 425 kts 306°
2026-04-28 15:00 27.55276 31.91602 28232 ft 424 kts 306°
2026-04-28 15:01 27.57069 31.88973 28510 ft 423 kts 306°
2026-04-28 15:01 27.58859 31.86348 28784 ft 422 kts 305°
2026-04-28 15:01 27.60642 31.83726 29080 ft 421 kts 305°
2026-04-28 15:01 27.62419 31.81113 29360 ft 420 kts 305°
2026-04-28 15:02 27.64191 31.78503 29674 ft 418 kts 305°
2026-04-28 15:02 27.65955 31.75904 29982 ft 416 kts 305°
2026-04-28 15:02 27.67714 31.73313 30260 ft 415 kts 305°
2026-04-28 15:02 27.69466 31.70733 30508 ft 414 kts 305°
2026-04-28 15:03 27.71213 31.68160 30760 ft 412 kts 304°
2026-04-28 15:03 27.72951 31.65593 31010 ft 410 kts 304°
2026-04-28 15:03 27.74678 31.63037 31272 ft 409 kts 304°
2026-04-28 15:03 27.76397 31.60491 31526 ft 407 kts 304°
2026-04-28 15:04 27.78110 31.57955 31788 ft 405 kts 304°
2026-04-28 15:04 27.79818 31.55428 32041 ft 404 kts 303°
2026-04-28 15:04 27.81518 31.52908 32290 ft 402 kts 303°
2026-04-28 15:04 27.83208 31.50400 32564 ft 400 kts 303°
2026-04-28 15:05 27.84891 31.47902 32826 ft 399 kts 303°
2026-04-28 15:05 27.86566 31.45412 33085 ft 397 kts 302°
2026-04-28 15:05 27.88233 31.42937 33363 ft 395 kts 302°
2026-04-28 15:05 27.89897 31.40468 33592 ft 395 kts 302°
2026-04-28 15:06 27.91561 31.37996 33816 ft 394 kts 302°
2026-04-28 15:06 27.93215 31.35535 33997 ft 393 kts 302°
2026-04-28 15:06 27.94868 31.33074 34043 ft 394 kts 302°
2026-04-28 15:07 27.98191 31.28128 34046 ft 395 kts 302°
2026-04-28 15:07 28.01517 31.23177 34056 ft 395 kts 302°
2026-04-28 15:08 28.04836 31.18224 34047 ft 395 kts 302°
2026-04-28 15:08 28.08470 31.13530 34043 ft 404 kts 313°
2026-04-28 15:09 28.12818 31.09487 34043 ft 404 kts 314°
2026-04-28 15:09 28.17166 31.05444 34038 ft 404 kts 314°
2026-04-28 15:10 28.21506 31.01398 34036 ft 404 kts 314°
2026-04-28 15:10 28.25842 30.97336 34066 ft 404 kts 314°
2026-04-28 15:11 28.30183 30.93267 34063 ft 404 kts 314°
2026-04-28 15:11 28.34515 30.89199 34053 ft 404 kts 314°
2026-04-28 15:12 28.38850 30.85130 34051 ft 404 kts 314°
2026-04-28 15:12 28.43186 30.81065 34045 ft 404 kts 314°
2026-04-28 15:13 28.47517 30.77002 34041 ft 404 kts 314°
2026-04-28 15:13 28.51844 30.72930 34032 ft 404 kts 314°
2026-04-28 15:14 28.56165 30.68850 34029 ft 404 kts 314°
2026-04-28 15:14 28.60488 30.64769 34050 ft 404 kts 314°
2026-04-28 15:15 28.64809 30.60687 34032 ft 404 kts 314°
2026-04-28 15:15 28.69132 30.56594 34022 ft 404 kts 314°
2026-04-28 15:16 28.73456 30.52503 34018 ft 404 kts 314°
2026-04-28 15:16 28.77778 30.48415 34009 ft 404 kts 314°
2026-04-28 15:17 28.82101 30.44317 34007 ft 404 kts 314°
2026-04-28 15:17 28.86421 30.40212 34014 ft 404 kts 314°
2026-04-28 15:18 28.90715 30.36132 34011 ft 404 kts 314°
2026-04-28 15:18 28.95059 30.31997 34038 ft 404 kts 314°
2026-04-28 15:19 28.99348 30.27908 34020 ft 404 kts 314°
2026-04-28 15:19 29.03696 30.23767 34014 ft 404 kts 314°
2026-04-28 15:20 29.08010 30.19651 34014 ft 404 kts 314°
2026-04-28 15:20 29.12297 30.15552 34009 ft 404 kts 314°
2026-04-28 15:21 29.16600 30.11420 34007 ft 404 kts 314°
2026-04-28 15:21 29.20909 30.07282 34018 ft 404 kts 314°
2026-04-28 15:22 29.25216 30.03159 34046 ft 404 kts 315°
2026-04-28 15:22 29.29517 29.99034 34027 ft 403 kts 314°
2026-04-28 15:23 29.33807 29.94903 34020 ft 403 kts 314°
2026-04-28 15:23 29.38095 29.90773 34013 ft 403 kts 314°
2026-04-28 15:24 29.42383 29.86647 34010 ft 403 kts 314°
2026-04-28 15:24 29.46671 29.82514 34011 ft 402 kts 315°
2026-04-28 15:25 29.50948 29.78379 34013 ft 402 kts 314°
2026-04-28 15:25 29.55221 29.74242 34010 ft 401 kts 314°
2026-04-28 15:26 29.59488 29.70113 34031 ft 401 kts 314°
2026-04-28 15:26 29.63754 29.65980 34021 ft 401 kts 314°
2026-04-28 15:27 29.68016 29.61843 34006 ft 401 kts 314°
2026-04-28 15:27 29.71554 29.58409 34000 ft 401 kts 314°
2026-04-28 15:28 29.75808 29.54268 33995 ft 400 kts 314°
2026-04-28 15:28 29.80051 29.50130 33991 ft 399 kts 314°
2026-04-28 15:29 29.84292 29.45997 33986 ft 399 kts 315°
2026-04-28 15:29 29.88530 29.41864 33986 ft 399 kts 315°
2026-04-28 15:30 29.92774 29.37729 33986 ft 399 kts 315°
2026-04-28 15:30 29.97013 29.33590 33984 ft 399 kts 314°
2026-04-28 15:31 30.01244 29.29447 33982 ft 399 kts 314°
2026-04-28 15:31 30.05472 29.25303 33980 ft 399 kts 314°
2026-04-28 15:32 30.09696 29.21152 33977 ft 398 kts 314°
2026-04-28 15:32 30.13912 29.17009 33977 ft 398 kts 314°
2026-04-28 15:33 30.18127 29.12861 33973 ft 398 kts 314°
2026-04-28 15:33 30.22340 29.08716 34011 ft 398 kts 314°
2026-04-28 15:34 30.26548 29.04566 34003 ft 397 kts 314°
2026-04-28 15:34 30.30751 29.00408 33991 ft 397 kts 314°
2026-04-28 15:35 30.34957 28.96254 33985 ft 397 kts 314°
2026-04-28 15:35 30.41255 28.90029 33990 ft 396 kts 314°
2026-04-28 15:36 30.45411 28.85907 33987 ft 396 kts 314°
2026-04-28 15:36 30.49594 28.81744 33997 ft 396 kts 314°
2026-04-28 15:37 30.53779 28.77585 33998 ft 396 kts 314°
2026-04-28 15:37 30.57961 28.73427 34030 ft 396 kts 314°
2026-04-28 15:38 30.62144 28.69268 34031 ft 396 kts 314°
2026-04-28 15:38 30.66322 28.65101 34034 ft 396 kts 314°
2026-04-28 15:39 30.70498 28.60931 34035 ft 395 kts 314°
2026-04-28 15:39 30.74673 28.56768 34033 ft 395 kts 314°
2026-04-28 15:40 30.78839 28.52597 34035 ft 395 kts 314°
2026-04-28 15:40 30.82999 28.48425 34032 ft 395 kts 314°
2026-04-28 15:41 30.87164 28.44250 34030 ft 395 kts 314°
2026-04-28 15:41 30.91329 28.40071 34042 ft 395 kts 314°
2026-04-28 15:42 30.95492 28.35880 34061 ft 396 kts 314°
2026-04-28 15:42 30.99629 28.31715 34053 ft 396 kts 314°
2026-04-28 15:43 31.03792 28.27523 34056 ft 395 kts 314°
2026-04-28 15:43 31.07955 28.23326 34048 ft 396 kts 314°
2026-04-28 15:44 31.12113 28.19120 34054 ft 396 kts 314°
2026-04-28 15:44 31.16271 28.14911 34047 ft 396 kts 314°
2026-04-28 15:45 31.20429 28.10704 34078 ft 395 kts 315°
2026-04-28 15:45 31.24590 28.06489 34069 ft 396 kts 315°
2026-04-28 15:46 31.28750 28.02265 34039 ft 396 kts 315°
2026-04-28 15:46 31.32914 27.98028 34032 ft 397 kts 315°
2026-04-28 15:47 31.37082 27.93783 34030 ft 398 kts 315°
2026-04-28 15:47 31.41260 27.89539 34026 ft 398 kts 315°
2026-04-28 15:48 31.45432 27.85286 34026 ft 398 kts 315°
2026-04-28 15:48 31.49601 27.81019 34029 ft 398 kts 315°
2026-04-28 15:49 31.53771 27.76748 34044 ft 398 kts 315°
2026-04-28 15:49 31.57952 27.72471 34037 ft 399 kts 315°
2026-04-28 15:50 31.62139 27.68179 34022 ft 400 kts 315°
2026-04-28 15:50 31.66333 27.63880 34025 ft 400 kts 315°
2026-04-28 15:51 31.70523 27.59574 34017 ft 400 kts 315°
2026-04-28 15:51 31.74705 27.55256 34023 ft 400 kts 315°
2026-04-28 15:52 31.78895 27.50936 34021 ft 401 kts 315°
2026-04-28 15:52 31.83089 27.46623 34030 ft 400 kts 315°
2026-04-28 15:53 31.87278 27.42308 34041 ft 400 kts 315°
2026-04-28 15:53 31.91465 27.37982 34032 ft 401 kts 315°
2026-04-28 15:54 31.95651 27.33646 34028 ft 401 kts 315°
2026-04-28 15:54 31.99832 27.29307 34025 ft 401 kts 315°
2026-04-28 15:55 32.04016 27.24958 34025 ft 401 kts 315°
2026-04-28 15:55 32.08191 27.20612 34025 ft 401 kts 315°
2026-04-28 15:56 32.12380 27.16253 34027 ft 401 kts 315°
2026-04-28 15:56 32.16563 27.11900 34032 ft 401 kts 315°
2026-04-28 15:57 32.20751 27.07544 34050 ft 401 kts 315°
2026-04-28 15:57 32.24934 27.03174 34046 ft 401 kts 315°
2026-04-28 15:58 32.29112 26.98801 34044 ft 401 kts 315°
2026-04-28 15:58 32.33291 26.94421 34042 ft 401 kts 315°
2026-04-28 15:59 32.36758 26.90784 34041 ft 401 kts 315°
2026-04-28 15:59 32.41634 26.85659 34036 ft 401 kts 315°
2026-04-28 16:00 32.45803 26.81280 34037 ft 401 kts 315°
2026-04-28 16:00 32.49968 26.76895 34059 ft 401 kts 316°
2026-04-28 16:01 32.54139 26.72497 34049 ft 402 kts 316°
2026-04-28 16:01 32.58316 26.68089 34032 ft 402 kts 316°
2026-04-28 16:02 32.62465 26.63696 34029 ft 403 kts 316°
2026-04-28 16:02 32.66646 26.59271 34029 ft 403 kts 316°
2026-04-28 16:03 32.70828 26.54849 34023 ft 402 kts 316°
2026-04-28 16:03 32.75004 26.50424 34024 ft 402 kts 316°
2026-04-28 16:04 32.79169 26.45993 34023 ft 402 kts 316°
2026-04-28 16:04 32.83336 26.41558 34030 ft 403 kts 316°
2026-04-28 16:05 32.87521 26.37104 34015 ft 404 kts 316°
2026-04-28 16:05 32.91715 26.32636 34013 ft 405 kts 316°
2026-04-28 16:06 32.95917 26.28145 34009 ft 406 kts 316°
2026-04-28 16:06 33.00116 26.23650 34012 ft 405 kts 316°
2026-04-28 16:07 33.04277 26.19189 34024 ft 404 kts 316°
2026-04-28 16:08 33.10547 26.12471 34028 ft 404 kts 316°
2026-04-28 16:08 33.14717 26.07982 34029 ft 404 kts 316°
2026-04-28 16:09 33.20975 26.01251 34025 ft 404 kts 316°
2026-04-28 16:10 33.27225 25.94507 34015 ft 403 kts 316°
2026-04-28 16:10 33.33464 25.87755 34032 ft 403 kts 316°
2026-04-28 16:11 33.41777 25.78764 34035 ft 402 kts 316°
2026-04-28 16:12 33.48007 25.71993 34020 ft 404 kts 316°
2026-04-28 16:13 33.54268 25.65188 34012 ft 406 kts 316°
2026-04-28 16:14 33.62618 25.56078 34007 ft 406 kts 316°
2026-04-28 16:15 33.70264 25.47728 34013 ft 406 kts 316°
2026-04-28 16:15 33.74431 25.43155 34015 ft 406 kts 316°
2026-04-28 16:16 33.80694 25.36296 34018 ft 407 kts 316°
2026-04-28 16:17 33.86964 25.29399 34010 ft 407 kts 316°
2026-04-28 16:17 33.91139 25.24794 34009 ft 407 kts 316°
2026-04-28 16:18 33.95312 25.20185 34013 ft 407 kts 316°
2026-04-28 16:18 33.99488 25.15574 34041 ft 408 kts 317°
2026-04-28 16:19 34.01707 25.13443 34207 ft 408 kts 321°
2026-04-28 16:19 34.03972 25.11380 34386 ft 408 kts 321°
2026-04-28 16:19 34.06232 25.09312 34559 ft 408 kts 321°
2026-04-28 16:19 34.08489 25.07237 34718 ft 408 kts 321°
2026-04-28 16:20 34.10749 25.05156 34856 ft 409 kts 321°
2026-04-28 16:20 34.13013 25.03073 35009 ft 409 kts 321°
2026-04-28 16:20 34.15275 25.00995 35163 ft 409 kts 321°
2026-04-28 16:20 34.17534 24.98915 35343 ft 407 kts 321°
2026-04-28 16:21 34.19781 24.96845 35524 ft 406 kts 320°
2026-04-28 16:21 34.22025 24.94774 35679 ft 406 kts 320°
2026-04-28 16:21 34.24265 24.92705 35825 ft 405 kts 320°
2026-04-28 16:21 34.26502 24.90635 35983 ft 405 kts 320°
2026-04-28 16:22 34.30975 24.86499 36029 ft 405 kts 320°
2026-04-28 16:22 34.35449 24.82365 36030 ft 405 kts 320°
2026-04-28 16:23 34.39924 24.78214 36029 ft 406 kts 320°
2026-04-28 16:23 34.44407 24.74054 36030 ft 406 kts 320°
2026-04-28 16:24 34.48892 24.69889 36027 ft 406 kts 320°
2026-04-28 16:24 34.53372 24.65714 36028 ft 406 kts 320°
2026-04-28 16:25 34.57857 24.61537 36032 ft 406 kts 320°
2026-04-28 16:25 34.62339 24.57359 36033 ft 406 kts 320°
2026-04-28 16:26 34.66819 24.53168 36041 ft 407 kts 320°
2026-04-28 16:26 34.71305 24.48971 36040 ft 407 kts 320°
2026-04-28 16:27 34.75790 24.44770 36038 ft 407 kts 320°
2026-04-28 16:28 34.82519 24.38453 36036 ft 407 kts 320°
2026-04-28 16:28 34.87002 24.34240 36043 ft 407 kts 320°
2026-04-28 16:29 34.93719 24.27914 36050 ft 407 kts 320°
2026-04-28 16:30 35.00437 24.21574 36057 ft 408 kts 320°
2026-04-28 16:30 35.04914 24.17330 36066 ft 408 kts 320°
2026-04-28 16:31 35.09400 24.13083 36064 ft 408 kts 320°
2026-04-28 16:31 35.13887 24.08831 36071 ft 408 kts 320°
2026-04-28 16:32 35.18369 24.04573 36061 ft 408 kts 320°
2026-04-28 16:32 35.25089 23.98173 36077 ft 408 kts 320°
2026-04-28 16:33 35.28817 23.94626 36068 ft 408 kts 320°
2026-04-28 16:33 35.34030 23.89657 36069 ft 409 kts 320°
2026-04-28 16:34 35.38511 23.85370 36076 ft 409 kts 320°
2026-04-28 16:34 35.42990 23.81080 36075 ft 409 kts 320°
2026-04-28 16:35 35.47471 23.76789 36075 ft 408 kts 320°
2026-04-28 16:35 35.51946 23.72496 36078 ft 408 kts 320°
2026-04-28 16:36 35.56420 23.68192 36080 ft 409 kts 320°
2026-04-28 16:36 35.60892 23.63880 36080 ft 409 kts 320°
2026-04-28 16:37 35.65371 23.59563 36079 ft 409 kts 320°
2026-04-28 16:38 35.72089 23.53060 36085 ft 410 kts 320°
2026-04-28 16:38 35.76573 23.48727 36088 ft 410 kts 320°
2026-04-28 16:39 35.81061 23.44385 36090 ft 410 kts 320°
2026-04-28 16:39 35.85545 23.40033 36092 ft 411 kts 320°
2026-04-28 16:40 35.90030 23.35665 36093 ft 411 kts 320°
2026-04-28 16:40 35.94519 23.31294 36096 ft 411 kts 320°
2026-04-28 16:41 35.99013 23.26915 36097 ft 411 kts 320°
2026-04-28 16:41 36.03503 23.22530 36103 ft 411 kts 320°
2026-04-28 16:42 36.07990 23.18141 36109 ft 411 kts 320°
2026-04-28 16:42 36.12474 23.13744 36113 ft 411 kts 320°
2026-04-28 16:43 36.16963 23.09349 36109 ft 411 kts 320°
2026-04-28 16:43 36.21442 23.04945 36114 ft 411 kts 320°
2026-04-28 16:44 36.25886 23.00563 36116 ft 411 kts 320°
2026-04-28 16:44 36.30367 22.96148 36118 ft 411 kts 320°
2026-04-28 16:45 36.34847 22.91732 36119 ft 411 kts 320°
2026-04-28 16:45 36.39318 22.87311 36125 ft 411 kts 320°
2026-04-28 16:46 36.43796 22.82878 36114 ft 412 kts 320°
2026-04-28 16:46 36.48276 22.78438 36106 ft 412 kts 320°
2026-04-28 16:47 36.52759 22.73988 36098 ft 412 kts 319°
2026-04-28 16:47 36.57237 22.69533 36099 ft 412 kts 319°
2026-04-28 16:48 36.61712 22.65075 36101 ft 412 kts 319°
2026-04-28 16:48 36.66193 22.60614 36103 ft 412 kts 319°
2026-04-28 16:49 36.70670 22.56149 36111 ft 413 kts 319°
2026-04-28 16:49 36.75143 22.51658 36108 ft 413 kts 319°
2026-04-28 16:50 36.79619 22.47172 36105 ft 413 kts 319°
2026-04-28 16:50 36.84098 22.42677 36092 ft 413 kts 319°
2026-04-28 16:51 36.88575 22.38183 36096 ft 413 kts 319°
2026-04-28 16:51 36.93052 22.33679 36097 ft 413 kts 319°
2026-04-28 16:52 36.97498 22.29200 36105 ft 413 kts 319°
2026-04-28 16:52 37.01976 22.24674 36096 ft 414 kts 319°
2026-04-28 16:53 37.06455 22.20141 36090 ft 414 kts 319°
2026-04-28 16:53 37.10936 22.15601 36086 ft 415 kts 319°
2026-04-28 16:54 37.15422 22.11054 36077 ft 415 kts 319°
2026-04-28 16:54 37.19901 22.06499 36084 ft 415 kts 319°
2026-04-28 16:55 37.24380 22.01940 36106 ft 415 kts 319°
2026-04-28 16:55 37.28864 21.97370 36104 ft 415 kts 319°
2026-04-28 16:56 37.33355 21.92790 36094 ft 416 kts 319°
2026-04-28 16:56 37.37845 21.88194 36092 ft 417 kts 319°
2026-04-28 16:57 37.42340 21.83587 36096 ft 417 kts 319°
2026-04-28 16:57 37.46840 21.78975 36090 ft 417 kts 319°
2026-04-28 16:58 37.51332 21.74358 36099 ft 417 kts 319°
2026-04-28 16:58 37.55825 21.69732 36108 ft 417 kts 319°
2026-04-28 16:59 37.60323 21.65098 36102 ft 418 kts 319°
2026-04-28 16:59 37.64817 21.60452 36097 ft 418 kts 319°
2026-04-28 17:00 37.69315 21.55797 36093 ft 418 kts 319°
2026-04-28 17:00 37.73813 21.51142 36092 ft 418 kts 319°
2026-04-28 17:01 37.78311 21.46482 36093 ft 418 kts 319°
2026-04-28 17:01 37.82050 21.42601 36095 ft 419 kts 319°
2026-04-28 17:02 37.87282 21.37154 36085 ft 419 kts 319°
2026-04-28 17:02 37.91786 21.32448 36083 ft 420 kts 319°
2026-04-28 17:03 37.97811 21.26144 36081 ft 420 kts 319°
2026-04-28 17:03 38.02290 21.21460 36082 ft 420 kts 319°
2026-04-28 17:04 38.09054 21.14367 36093 ft 421 kts 319°
2026-04-28 17:05 38.15822 21.07247 36075 ft 421 kts 319°
2026-04-28 17:06 38.22601 21.00113 36075 ft 422 kts 319°
2026-04-28 17:06 38.29375 20.92958 36078 ft 422 kts 319°
2026-04-28 17:07 38.33886 20.88171 36079 ft 422 kts 319°
2026-04-28 17:07 38.38405 20.83382 36080 ft 423 kts 319°
2026-04-28 17:08 38.42933 20.78580 36069 ft 424 kts 319°
2026-04-28 17:08 38.47465 20.73759 36078 ft 424 kts 319°
2026-04-28 17:09 38.51993 20.68929 36082 ft 424 kts 319°
2026-04-28 17:09 38.56520 20.64087 36085 ft 425 kts 319°
2026-04-28 17:10 38.61051 20.59242 36086 ft 425 kts 319°
2026-04-28 17:10 38.65583 20.54390 36089 ft 425 kts 319°
2026-04-28 17:11 38.70118 20.49518 36087 ft 426 kts 319°
2026-04-28 17:11 38.74652 20.44640 36079 ft 426 kts 319°
2026-04-28 17:12 38.79192 20.39751 36072 ft 427 kts 319°
2026-04-28 17:12 38.83730 20.34844 36082 ft 427 kts 319°
2026-04-28 17:13 38.88280 20.29937 36085 ft 427 kts 319°
2026-04-28 17:13 38.92791 20.25053 36087 ft 427 kts 318°
2026-04-28 17:14 38.97360 20.20091 36081 ft 427 kts 319°
2026-04-28 17:14 39.01878 20.15202 36082 ft 427 kts 319°
2026-04-28 17:15 39.06417 20.10266 36074 ft 427 kts 318°
2026-04-28 17:15 39.10949 20.05306 36075 ft 427 kts 318°
2026-04-28 17:16 39.15482 20.00348 36086 ft 428 kts 318°
2026-04-28 17:16 39.20022 19.95390 36075 ft 428 kts 318°
2026-04-28 17:17 39.24562 19.90413 36068 ft 428 kts 318°
2026-04-28 17:17 39.29006 19.85519 36062 ft 429 kts 318°
2026-04-28 17:18 39.33584 19.80491 36061 ft 429 kts 318°
2026-04-28 17:18 39.38127 19.75496 36048 ft 429 kts 318°
2026-04-28 17:19 39.42670 19.70493 36057 ft 429 kts 318°
2026-04-28 17:19 39.47179 19.65503 36060 ft 429 kts 318°
2026-04-28 17:20 39.50953 19.61321 36058 ft 430 kts 318°
2026-04-28 17:20 39.56256 19.55430 36057 ft 430 kts 318°
2026-04-28 17:21 39.60793 19.50385 36063 ft 430 kts 318°
2026-04-28 17:22 39.67598 19.42802 36050 ft 430 kts 318°
2026-04-28 17:22 39.72133 19.37741 36064 ft 430 kts 318°
2026-04-28 17:23 39.78941 19.30130 36064 ft 430 kts 318°
2026-04-28 17:23 39.83444 19.25073 36069 ft 430 kts 318°
2026-04-28 17:24 39.87970 19.19978 36071 ft 430 kts 318°
2026-04-28 17:24 39.92503 19.14876 36070 ft 430 kts 318°
2026-04-28 17:25 39.99298 19.07222 36077 ft 431 kts 318°
2026-04-28 17:26 40.03827 19.02108 36076 ft 430 kts 318°
2026-04-28 17:26 40.08589 18.97365 36071 ft 431 kts 323°
2026-04-28 17:27 40.13526 18.92904 36073 ft 431 kts 324°
2026-04-28 17:27 40.18460 18.88430 36073 ft 431 kts 323°
2026-04-28 17:28 40.23386 18.83947 36077 ft 431 kts 323°
2026-04-28 17:28 40.30777 18.77222 36065 ft 431 kts 323°
2026-04-28 17:29 40.35696 18.72732 36059 ft 431 kts 323°
2026-04-28 17:30 40.43072 18.65983 36070 ft 431 kts 323°
2026-04-28 17:30 40.50444 18.59225 36080 ft 430 kts 323°
2026-04-28 17:31 40.57805 18.52468 36076 ft 430 kts 323°
2026-04-28 17:32 40.65147 18.45686 36067 ft 430 kts 323°
2026-04-28 17:32 40.70039 18.41160 36066 ft 430 kts 323°